Regional Weather Roundup
Issued by NWS

Home | Current Version | Previous Version | Graphics & Text | Print | Product List | Glossary On
Versions: 1 2 3 4 5 6 7 8 9 10 11 12 13 14 15 16 17 18 19 20 21 22 23 24 25 26 27 28 29 30 31 32 33 34 35 36 37 38 39 40 41 42 43 44 45 46 47 48 49 50
000
ASUS45 KABQ 012110
RWRNM
WEATHER ROUNDUP FOR NEW MEXICO
NATIONAL WEATHER SERVICE ALBUQUERQUE NM
200 PM MST SUN MAR 01 2015

NOTE: "FAIR" MEANS FEW OR NO CLOUDS BELOW 12,000 FEET AGL WITH NO
       SIGNIFICANT WEATHER OR OBSTRUCTIONS TO VISION.

      THIS PRODUCT IS RELEASED AS TWO VERSIONS.  ONE VERSION NEAR
      THE TOP OF THE HOUR CONTAINING PRELIMINARY DATA FROM ALBUQUERQUE
      AND OTHER STATIONS.  A FINAL VERSION WITH ADDITIONAL DATA IS
      ISSUED ABOUT 10 MINUTES AFTER THE HOUR.

NMZ501-503-504-510>518-012200-
NORTHWEST PLATEAU/NORTHCENTRAL MOUNTAINS

CITY           SKY/WX    TMP DP  RH WIND       PRES   REMARKS
FARMINGTON     CLOUDY    41  36  82 E13       30.04F
LOS ALAMOS     PTSUNNY   45  35  67 S8        30.11F
SANTA FE       PTSUNNY   51  34  52 S7        30.09F
TAOS           PTSUNNY   39  32  75 CALM      30.13S
ANGEL FIRE     FAIR      40  32  73 SW18G25     N/A  WCI  31

$$
NMZ402-403-502-505>509-012200-
WESTCENTRAL MOUNTAINS/SOUTHWEST MOUNTAINS

CITY           SKY/WX    TMP DP  RH WIND       PRES   REMARKS
GALLUP         CLOUDY    51  42  71 SW17G24   30.04F
GRANTS         CLOUDY    52  39  61 SE10G16   30.06F
SILVER CITY    MOSUNNY   63  25  23 S15G22    30.10F

$$
NMZ407-409-411-412-012200-
SOUTHERN DESERTS

CITY           SKY/WX    TMP DP  RH WIND       PRES   REMARKS
LORDSBURG      FAIR      70  30  23 S12G23    30.03F
DEMING         MOSUNNY   70  24  17 SW17G25   30.04F
LAS CRUCES     MOSUNNY   71  22  15 SW13G20   30.06F
HOLLOMAN AFB   SUNNY     71  31  22 S13       30.02F
ALAMOGORDO     SUNNY     68  32  26 S14G23    30.04F
T OR C         SUNNY     68  25  19 S20G28    30.01F

$$
NMZ519>523-012200-
CENTRAL VALLEYS/CENTRAL HIGHLANDS

CITY           SKY/WX    TMP DP  RH WIND       PRES   REMARKS
ALBUQUERQUE    MOSUNNY   56  40  55 W3        30.05F
DOUBLE EAGLE   MOSUNNY   54  41  62 SE9       30.08F
MORIARTY ARPT  FAIR      61  31  32 W10G21    30.08F
CLINES CORNERS MOSUNNY   58  34  40 SW20G25   30.09F
BELEN          MOCLDY    63  32  31 S9G20     30.02F
SOCORRO          N/A     68  30  23 S16G23    30.01F

$$
NMZ524>526-539-540-012200-
SOUTHCENTRAL MOUNTAINS

CITY           SKY/WX    TMP DP  RH WIND       PRES   REMARKS
RUIDOSO        MOSUNNY   57  25  28 S15G28    30.14S

$$
NMZ527>531-012200-
NORTHEAST HIGHLANDS/NORTHEAST PLAINS

CITY           SKY/WX    TMP DP  RH WIND       PRES   REMARKS
LAS VEGAS      MOSUNNY   46  32  58 SW21      30.08F
RATON          PTSUNNY   35  32  88 SW17      30.08R FOG     WCI  25
CLAYTON        CLOUDY    29  22  75 NE9       30.19F WCI  20

$$
NMZ532>537-012200-
EASTCENTRAL PLAINS

CITY           SKY/WX    TMP DP  RH WIND       PRES   REMARKS
TUCUMCARI      CLOUDY    34  29  82 E9        30.19S WCI  27
CANNON AFB     CLOUDY    33  31  90 E6        30.17F WCI  28
CLOVIS AIRPORT CLOUDY    32  30  93 E7        30.18F WCI  26

$$
NMZ028-029-538-012200-
SOUTHEAST PLAINS

CITY           SKY/WX    TMP DP  RH WIND       PRES   REMARKS
ROSWELL        CLOUDY    35  32  88 CALM      30.15F
ARTESIA        PTSUNNY   43  39  87 CALM      30.15F
CARLSBAD       CLOUDY    42  34  73 SE9       30.15F
HOBBS          CLOUDY    39  39 100 E5        30.18F


$$


USA.gov is the U.S. government's official web portal to all federal, state and local government web resources and services.